[[{"header":{"parameterUnit":"m.s-1","parameterCategory":1,"la1":30.2991,"la2":30.254,"lo1":-89.0895,"lo2":-89.0444,"dy":0.0017,"dx":0.0017,"nx":28,"ny":28,"refTime":"2024-10-14T09:00:00:Z","depth":0,"parameterNumber":2,"parameterNumberName":"U-component_of_WINDS"},"data":[0,0,0,0,0,0,0,0,0,0,0,0,0,0,0,0,0,0,0,0,0,0,0,0,0,0,0,0,0,0,0,0,0,0,0,0,0,0,0,0,0,0,0,0,0,0,0,0,0,0,0,0,0,0,0,0,0,0,3.3799,3.3801,0,3.3995,3.3998,3.4,3.3972,3.3968,3.3965,3.3962,3.4167,3.4175,3.4183,0,0,0,0,0,0,0,0,0,0,0,0,0,3.3404,3.3411,3.3799,3.3802,3.3804,3.3995,3.3998,3.4,3.3972,3.3968,3.3964,3.396,3.4164,3.4174,3.4184,0,0,0,0,0,0,0,0,0,0,0,0,0,3.3585,3.3413,3.3799,3.3813,3.3816,3.3994,3.3998,3.4001,3.3973,3.3968,3.3963,3.3959,3.4161,3.4173,3.4186,3.4363,0,0,3.4225,3.423,0,0,0,0,0,0,0,0,3.3575,3.36,3.3808,3.3812,3.3816,3.3954,3.3933,3.4123,3.3974,3.3914,3.3962,3.3956,3.41,3.4118,3.4165,3.4373,3.4382,3.4226,3.4234,3.4239,3.4243,0,0,0,0,0,0,0,3.3562,3.3591,3.3877,3.3811,3.3816,3.3811,3.3831,3.3969,3.4032,3.3919,3.3917,3.394,3.4101,3.4153,3.417,3.4385,3.4225,3.4237,3.4245,3.425,3.4749,3.4754,0,0,0,0,0,0,3.3545,3.3581,3.3871,3.3883,3.3681,3.3822,3.3844,3.3915,3.4031,3.4044,3.3944,3.3938,3.4134,3.4155,3.4177,3.4393,3.4239,3.4251,3.4258,3.4743,3.475,3.4756,0,0,0,0,0,0,3.3537,3.3572,3.3863,3.3732,3.3768,3.3834,3.3913,3.3921,3.3973,3.405,3.4062,3.3985,3.4131,3.4159,3.4317,3.44,3.4257,3.4268,3.4737,3.4745,3.4753,3.4827,0,0,0,0,0,0,3.3526,3.3569,3.3636,3.3733,3.3775,3.3999,3.3918,3.3929,3.3995,3.3988,3.4092,3.4104,3.4129,3.4298,3.433,3.4415,3.4278,3.473,3.4741,3.475,3.4817,3.4837,3.4853,0,0,0,0,0,3.3512,3.365,3.364,3.3675,3.3861,3.4003,3.4028,3.4052,3.4001,3.407,3.412,3.4101,3.4386,3.4315,3.435,3.444,3.4725,3.4737,3.475,3.4809,3.4833,3.4853,0,0,0,0,0,0,3.3563,3.3663,3.3653,3.3826,3.3906,3.3998,3.4086,3.4076,3.4174,3.4164,3.4192,3.4215,3.4375,3.4424,3.4343,3.4619,3.4548,3.4568,3.4581,3.4605,3.4622,3.4608,3.4289,0,0,0,0,0,3.3593,3.37,3.3782,3.3928,3.3968,3.402,3.4083,3.4095,3.418,3.4214,3.4275,3.4359,3.4468,3.4539,3.4643,3.4824,3.4846,3.4903,3.4921,3.4936,3.4953,3.5053,3.508,3.4797,3.4797,3.4797,0,0,3.366,3.3727,3.3793,3.3939,3.4003,3.4114,3.4049,3.4169,3.4252,3.4233,3.4385,3.4433,3.4529,3.4699,3.4778,3.4745,3.5036,3.4952,3.4963,3.4973,3.5069,3.5095,3.5119,3.4806,3.4804,3.4803,0,0,3.3836,3.3898,3.4025,3.409,3.4187,3.422,3.4251,3.4345,3.4376,3.4529,3.4517,3.4616,3.4802,3.4871,3.493,3.5133,3.5119,3.5166,3.526,3.5357,3.5379,3.5399,3.5472,3.5498,3.5183,3.5183,3.5183,0,3.3906,3.4071,3.4093,3.4214,3.4279,3.4265,3.4396,3.4458,3.4584,3.463,3.459,3.4823,3.4887,3.5073,3.5122,3.5171,3.5207,3.5154,3.5374,3.5394,3.5413,3.5483,3.551,3.5188,3.5187,3.5187,3.5186,0,3.4153,3.4268,3.4359,3.448,3.4555,3.468,3.4722,3.4796,3.4801,3.4839,3.4996,3.5071,3.5191,3.5236,3.5243,3.5424,3.54,3.5367,3.5297,3.5445,3.5511,3.5538,3.5195,3.5193,3.5192,3.5191,0,0,3.4368,3.4498,3.4531,3.4586,3.4691,3.4781,3.4906,3.5021,3.5084,3.5171,3.5277,3.5435,3.5405,3.5472,3.5487,3.5572,3.5728,3.5529,3.5532,3.5564,3.5933,3.5957,3.5988,3.5719,3.5724,3.5728,3.5925,0,3.4555,3.4774,3.4797,3.4993,3.51,3.5089,3.5197,3.5274,3.5313,3.541,3.5454,3.5565,3.5517,3.5558,3.5641,3.5691,3.5803,3.5677,3.5819,3.5824,3.5796,3.6022,3.6048,3.623,3.5951,3.5955,3.5958,0,3.4803,3.4896,3.5102,3.5193,3.5238,3.5336,3.5443,3.5535,3.5623,3.5645,3.572,3.5723,3.5853,3.5777,3.5957,3.5871,3.5931,3.5964,3.5972,3.5987,3.5901,3.6044,3.6289,3.6316,3.5999,3.5996,3.5993,0,3.4939,3.5117,3.5263,3.531,3.5419,3.5488,3.5536,3.5619,3.5686,3.5781,3.5825,3.5934,3.5993,3.6078,3.6111,3.6052,3.629,3.6216,3.6313,3.6312,3.6364,3.636,3.6623,3.6401,3.6401,3.64,3.64,0,3.5146,3.5274,3.5326,3.5416,3.5558,3.5584,3.5724,3.577,3.5843,3.5943,3.594,3.6034,3.6071,3.6172,3.6198,3.6344,3.6371,3.6393,3.6399,3.6394,3.6391,3.6434,3.6422,3.6408,3.6406,3.6405,3.6403,0,3.5324,3.5364,3.5523,3.5612,3.5637,3.5738,3.5816,3.5903,3.594,3.6067,3.6098,3.6157,3.6275,3.6316,3.646,3.6477,3.6646,3.6641,3.6617,3.6618,3.6712,3.6703,3.7012,3.7054,3.6804,3.6807,3.6809,0,3.5453,3.5551,3.565,3.5716,3.5767,3.5873,3.5942,3.5971,3.6043,3.6149,3.6225,3.6341,3.6436,3.6625,3.6682,3.6792,3.679,3.689,3.6806,3.6798,3.6792,3.6786,3.6796,3.6906,3.6909,3.6911,3.6912,0,3.568,3.5695,3.5793,3.5899,3.598,3.6065,3.6148,3.6202,3.6243,3.6324,3.6444,3.6517,3.6663,3.678,3.6892,3.6943,3.6936,3.6938,3.6967,3.6963,3.6945,3.6956,3.666,3.6931,3.6929,3.6928,3.6927,3.6926,3.5838,3.5924,3.6007,3.6117,3.6181,3.6258,3.6345,3.6392,3.6492,3.6612,3.6623,3.6753,3.6838,3.6987,3.7044,3.7146,3.7119,3.7159,3.717,3.718,3.7187,3.6928,3.7167,3.7166,3.7166,3.7166,3.7165,0,3.6065,3.6117,3.6218,3.6332,3.6419,3.6402,3.6492,3.6566,3.6679,3.6759,3.6852,3.6989,3.7102,3.7167,3.728,3.735,3.7349,3.7379,3.7374,3.7386,3.7205,3.717,3.7377,3.7377,3.7377,3.7377,3.7377,3.7377,3.6193,3.6337,3.6362,3.6538,3.659,3.6716,3.6769,3.684,3.6903,3.7057,3.715,3.7191,3.7265,3.7383,3.7486,3.7502,3.7545,3.7577,3.7591,3.7421,3.7399,3.7378,3.7345,3.7586,3.7586,3.7763,3.7765,3.7766]},{"header":{"parameterUnit":"m.s-1","parameterCategory":1,"la1":30.2991,"la2":30.254,"lo1":-89.0895,"lo2":-89.0444,"dy":0.0017,"dx":0.0017,"nx":28,"ny":28,"refTime":"2024-10-14T09:00:00:Z","depth":0,"parameterNumber":3,"parameterNumberName":"V-component_of_WINDS"},"data":[0,0,0,0,0,0,0,0,0,0,0,0,0,0,0,0,0,0,0,0,0,0,0,0,0,0,0,0,0,0,0,0,0,0,0,0,0,0,0,0,0,0,0,0,0,0,0,0,0,0,0,0,0,0,0,0,0,0,-1.177,-1.1772,0,-1.1874,-1.1875,-1.1876,-1.1909,-1.1909,-1.1908,-1.1908,-1.2015,-1.2019,-1.2022,0,0,0,0,0,0,0,0,0,0,0,0,0,-1.1605,-1.1608,-1.177,-1.1772,-1.1773,-1.1873,-1.1875,-1.1876,-1.1909,-1.1909,-1.1908,-1.1908,-1.2014,-1.2018,-1.2022,0,0,0,0,0,0,0,0,0,0,0,0,0,-1.1689,-1.1608,-1.177,-1.1801,-1.1805,-1.1873,-1.1875,-1.1877,-1.191,-1.1909,-1.1908,-1.1907,-1.2013,-1.2018,-1.2023,-1.2067,0,0,-1.2038,-1.204,0,0,0,0,0,0,0,0,-1.1684,-1.1695,-1.1796,-1.1799,-1.1804,-1.1878,-1.1856,-1.1941,-1.191,-1.187,-1.1908,-1.1907,-1.197,-1.1979,-1.2,-1.2072,-1.2077,-1.2038,-1.2041,-1.2043,-1.2045,0,0,0,0,0,0,0,-1.1678,-1.1691,-1.1811,-1.1797,-1.1802,-1.1811,-1.1823,-1.1872,-1.1923,-1.1873,-1.1876,-1.1888,-1.1973,-1.1995,-1.2003,-1.2079,-1.2038,-1.2043,-1.2046,-1.2048,-1.2195,-1.2196,0,0,0,0,0,0,-1.1667,-1.1686,-1.1808,-1.1814,-1.1741,-1.1815,-1.1827,-1.1855,-1.1922,-1.1932,-1.1888,-1.1889,-1.1987,-1.1997,-1.2006,-1.2064,-1.2043,-1.2048,-1.2051,-1.2194,-1.2195,-1.2196,0,0,0,0,0,0,-1.1663,-1.1677,-1.1804,-1.1751,-1.1768,-1.1819,-1.1849,-1.1857,-1.188,-1.1934,-1.1943,-1.1902,-1.1987,-1.1999,-1.2052,-1.2068,-1.205,-1.2055,-1.2193,-1.2195,-1.2196,-1.2179,0,0,0,0,0,0,-1.1658,-1.1676,-1.1693,-1.1751,-1.177,-1.1847,-1.185,-1.186,-1.1888,-1.189,-1.1949,-1.1958,-1.1987,-1.2045,-1.2057,-1.2075,-1.2059,-1.2192,-1.2194,-1.2195,-1.2178,-1.218,-1.2181,0,0,0,0,0,-1.1652,-1.1684,-1.1693,-1.1708,-1.1792,-1.1848,-1.1859,-1.1891,-1.1889,-1.1907,-1.1942,-1.1956,-1.2065,-1.205,-1.2064,-1.2083,-1.2191,-1.2193,-1.2195,-1.2178,-1.2179,-1.2181,0,0,0,0,0,0,-1.1626,-1.1692,-1.1703,-1.1754,-1.1795,-1.1853,-1.1876,-1.1892,-1.1935,-1.1935,-1.1974,-1.1987,-1.2037,-1.2066,-1.2048,-1.2131,-1.2129,-1.2134,-1.211,-1.2112,-1.2113,-1.2105,-1.2063,0,0,0,0,0,-1.1626,-1.1665,-1.1721,-1.1761,-1.1781,-1.1825,-1.185,-1.1872,-1.1916,-1.1934,-1.1973,-1.2015,-1.206,-1.2088,-1.2131,-1.2183,-1.2197,-1.2204,-1.2205,-1.2205,-1.2209,-1.224,-1.2244,-1.2203,-1.2203,-1.2203,0,0,-1.1627,-1.1668,-1.169,-1.1756,-1.1791,-1.1831,-1.1839,-1.1881,-1.1912,-1.194,-1.1992,-1.2023,-1.2074,-1.2126,-1.2152,-1.2152,-1.2224,-1.2208,-1.2208,-1.2212,-1.2243,-1.2247,-1.225,-1.2205,-1.2205,-1.2204,0,0,-1.1649,-1.1683,-1.172,-1.1755,-1.1806,-1.1836,-1.1845,-1.1901,-1.1922,-1.1975,-1.1998,-1.2036,-1.211,-1.2146,-1.2174,-1.2211,-1.2226,-1.2224,-1.223,-1.226,-1.2263,-1.2266,-1.228,-1.2285,-1.2228,-1.2228,-1.2228,0,-1.1643,-1.1704,-1.1738,-1.1779,-1.1808,-1.1836,-1.1875,-1.1907,-1.197,-1.199,-1.199,-1.2085,-1.2121,-1.2183,-1.2192,-1.2214,-1.2226,-1.2217,-1.226,-1.2263,-1.2267,-1.2281,-1.2286,-1.2227,-1.2227,-1.2228,-1.2228,0,-1.1695,-1.1737,-1.1761,-1.1821,-1.1853,-1.1893,-1.1934,-1.1963,-1.1983,-1.2013,-1.2067,-1.2112,-1.2165,-1.2182,-1.2201,-1.2247,-1.2246,-1.2252,-1.225,-1.2269,-1.2283,-1.2289,-1.2227,-1.2227,-1.2227,-1.2227,0,0,-1.1701,-1.1781,-1.1789,-1.1818,-1.1878,-1.1911,-1.1953,-1.2005,-1.203,-1.2073,-1.211,-1.2173,-1.218,-1.2211,-1.2235,-1.2261,-1.2289,-1.2265,-1.2267,-1.2268,-1.2344,-1.2339,-1.2344,-1.23,-1.2301,-1.2302,-1.234,0,-1.1731,-1.1806,-1.1839,-1.1899,-1.1939,-1.1967,-1.2004,-1.2045,-1.2075,-1.2114,-1.2148,-1.2192,-1.2197,-1.2217,-1.2244,-1.228,-1.2305,-1.2278,-1.2335,-1.2337,-1.2321,-1.2351,-1.2346,-1.2379,-1.2346,-1.2347,-1.2347,0,-1.1775,-1.1819,-1.1883,-1.1939,-1.1958,-1.199,-1.2041,-1.2078,-1.2126,-1.2146,-1.2182,-1.2205,-1.2252,-1.2247,-1.2312,-1.2293,-1.2319,-1.2341,-1.2343,-1.2349,-1.2343,-1.2359,-1.2391,-1.2396,-1.2356,-1.2355,-1.2355,0,-1.1774,-1.1849,-1.1897,-1.1921,-1.1988,-1.201,-1.2039,-1.2087,-1.2116,-1.2161,-1.2181,-1.2231,-1.2259,-1.2298,-1.2334,-1.2328,-1.2397,-1.2395,-1.2415,-1.2414,-1.2428,-1.2427,-1.2465,-1.2445,-1.2445,-1.2445,-1.2444,0,-1.1804,-1.1842,-1.1898,-1.1928,-1.1972,-1.201,-1.2054,-1.2085,-1.2127,-1.2165,-1.2192,-1.2227,-1.2273,-1.2314,-1.2343,-1.2394,-1.2406,-1.2424,-1.2431,-1.2421,-1.2419,-1.2439,-1.2437,-1.2446,-1.2446,-1.2445,-1.2445,0,-1.1809,-1.1848,-1.1903,-1.1962,-1.1978,-1.2008,-1.206,-1.2091,-1.2122,-1.2169,-1.2183,-1.2232,-1.2282,-1.2323,-1.2388,-1.2408,-1.2461,-1.2469,-1.2444,-1.2448,-1.2466,-1.2464,-1.2518,-1.2527,-1.25,-1.2501,-1.2501,0,-1.1826,-1.1856,-1.1919,-1.1945,-1.1974,-1.2017,-1.2047,-1.2087,-1.2118,-1.2176,-1.22,-1.2252,-1.2295,-1.2374,-1.2416,-1.2467,-1.2477,-1.2492,-1.2485,-1.2474,-1.2478,-1.2475,-1.2479,-1.2493,-1.2493,-1.2493,-1.2493,0,-1.185,-1.1868,-1.1911,-1.1961,-1.1996,-1.2038,-1.208,-1.21,-1.2148,-1.2181,-1.2232,-1.2266,-1.2333,-1.2385,-1.244,-1.2472,-1.2491,-1.2495,-1.2503,-1.2493,-1.2478,-1.2487,-1.2446,-1.2494,-1.2494,-1.2494,-1.2494,-1.2494,-1.1862,-1.1891,-1.194,-1.1987,-1.2022,-1.2061,-1.2093,-1.2129,-1.2172,-1.223,-1.2251,-1.2303,-1.2353,-1.2429,-1.2461,-1.2504,-1.2506,-1.2516,-1.2519,-1.2521,-1.252,-1.2471,-1.2514,-1.2514,-1.2514,-1.2514,-1.2514,0,-1.1889,-1.1922,-1.1965,-1.2023,-1.206,-1.2075,-1.2122,-1.2153,-1.2199,-1.2243,-1.2285,-1.2345,-1.2395,-1.2443,-1.2496,-1.2521,-1.2531,-1.2534,-1.2532,-1.254,-1.2515,-1.2504,-1.2525,-1.2525,-1.2525,-1.2525,-1.2525,-1.2525,-1.1907,-1.1956,-1.198,-1.2049,-1.2082,-1.2133,-1.2159,-1.2196,-1.2232,-1.2297,-1.2339,-1.2369,-1.2415,-1.2472,-1.252,-1.2533,-1.2551,-1.2551,-1.2566,-1.2543,-1.2541,-1.254,-1.2529,-1.2555,-1.2555,-1.2587,-1.2588,-1.2588]}]]